[[{"header":{"parameterUnit":"m.s-1","parameterCategory":1,"la1":30.2991,"la2":30.254,"lo1":-89.0895,"lo2":-89.0444,"dy":0.0017,"dx":0.0017,"nx":28,"ny":28,"refTime":"2023-09-13T09:00:00:Z","depth":0,"parameterNumber":2,"parameterNumberName":"U-component_of_WINDS"},"data":[0,0,0,0,0,0,0,0,0,0,0,0,0,0,0,0,0,0,0,0,0,0,0,0,0,0,0,0,0,0,0,0,0,0,0,0,0,0,0,0,0,0,0,0,0,0,0,0,0,0,0,0,0,0,0,0,0,0,1.9355,1.9357,0,1.9515,1.9517,1.9519,1.9511,1.9509,1.9506,1.9504,1.967,1.9677,1.9683,0,0,0,0,0,0,0,0,0,0,0,0,0,1.9044,1.905,1.9355,1.9357,1.9359,1.9515,1.9517,1.9519,1.9511,1.9509,1.9506,1.9503,1.9668,1.9676,1.9684,0,0,0,0,0,0,0,0,0,0,0,0,0,1.9189,1.9052,1.9354,1.9374,1.9377,1.9514,1.9517,1.952,1.9512,1.9509,1.9505,1.9502,1.9666,1.9675,1.9685,1.9814,0,0,1.9715,1.9719,0,0,0,0,0,0,0,0,1.9181,1.9201,1.9369,1.9373,1.9377,1.9489,1.9468,1.9618,1.9513,1.9461,1.9504,1.95,1.9613,1.9627,1.9665,1.9822,1.9829,1.9716,1.9722,1.9726,1.9729,0,0,0,0,0,0,0,1.9171,1.9194,1.9418,1.9371,1.9376,1.9375,1.9392,1.9497,1.9554,1.9465,1.9465,1.9484,1.9614,1.9655,1.9668,1.9831,1.9715,1.9724,1.973,1.9734,2.0103,2.0106,0,0,0,0,0,0,1.9157,1.9185,1.9413,1.9423,1.9268,1.9383,1.9402,1.9457,1.9553,1.9564,1.9487,1.9483,1.964,1.9657,1.9674,1.9832,1.9726,1.9735,1.9741,2.0099,2.0104,2.0108,0,0,0,0,0,0,1.915,1.9177,1.9407,1.9304,1.9333,1.9392,1.9454,1.9462,1.9502,1.9569,1.958,1.9517,1.9638,1.966,1.9779,1.9838,1.9739,1.9748,2.0094,2.01,2.0106,2.0148,0,0,0,0,0,0,1.9141,1.9175,1.9224,1.9305,1.9339,1.9508,1.9457,1.9467,1.9519,1.9516,1.9601,1.9612,1.9637,1.9764,1.9789,1.9849,1.9756,2.0089,2.0097,2.0104,2.0142,2.0155,2.0166,0,0,0,0,0,1.913,1.923,1.9226,1.9254,1.9402,1.9512,1.9531,1.9557,1.9524,1.9574,1.9617,1.9609,1.9827,1.9777,1.9804,1.9868,2.0086,2.0095,2.0103,2.0137,2.0152,2.0166,0,0,0,0,0,0,1.9154,1.9241,1.9238,1.9367,1.9432,1.951,1.9574,1.9573,1.965,1.9644,1.9674,1.9693,1.9812,1.9852,1.9794,1.9999,1.9952,1.9967,1.9968,1.9984,1.9995,1.9984,1.9764,0,0,0,0,0,1.9174,1.9256,1.9328,1.9435,1.9467,1.9515,1.9564,1.9579,1.9648,1.9676,1.9727,1.9795,1.9879,1.9933,2.0014,2.0148,2.0166,2.0205,2.0217,2.0227,2.0239,2.0314,2.0332,2.0137,2.0137,2.0136,0,0,1.9217,1.9275,1.9325,1.9441,1.9493,1.9578,1.9539,1.963,1.9693,1.969,1.9805,1.9845,1.9923,2.0049,2.0108,2.0087,2.0297,2.0238,2.0245,2.0253,2.0324,2.0343,2.0359,2.0143,2.0141,2.0141,0,0,1.9339,1.939,1.9485,1.9538,1.9617,1.9648,1.9671,1.975,1.9776,1.9892,1.9892,1.9968,2.0111,2.0167,2.0214,2.0356,2.0352,2.0382,2.0445,2.0516,2.0532,2.0546,2.0597,2.0615,2.0394,2.0394,2.0394,0,1.9383,1.9509,1.9534,1.9626,1.9678,1.9678,1.9774,1.9825,1.9927,1.9962,1.9937,2.0117,2.0169,2.0309,2.0344,2.0382,2.0409,2.0372,2.0527,2.0542,2.0555,2.0604,2.0624,2.0397,2.0397,2.0396,2.0396,0,1.9559,1.9647,1.9715,1.9812,1.9871,1.9965,2.0005,2.0062,2.0071,2.0105,2.0224,2.0286,2.038,2.0414,2.0424,2.0556,2.054,2.0521,2.0475,2.0576,2.0623,2.0642,2.0401,2.04,2.0399,2.0399,0,0,1.9701,1.9811,1.9835,1.988,1.9967,2.0036,2.013,2.0221,2.0269,2.0339,2.0419,2.0541,2.0523,2.0577,2.0593,2.0656,2.0766,2.0629,2.0632,2.0653,2.0915,2.093,2.0951,2.0763,2.0767,2.077,2.0909,0,1.9832,1.9998,2.0024,2.017,2.0252,2.0253,2.0335,2.0398,2.0432,2.0507,2.0545,2.0631,2.0601,2.0634,2.0696,2.0739,2.0819,2.073,2.0839,2.0843,2.082,2.0976,2.0992,2.112,2.0928,2.0931,2.0933,0,2.0007,2.0082,2.0236,2.0312,2.0348,2.0421,2.0506,2.0578,2.0649,2.067,2.0729,2.0738,2.0836,2.0786,2.0922,2.086,2.0907,2.0935,2.094,2.0952,2.0894,2.0993,2.1162,2.1181,2.0962,2.096,2.0958,0,2.0096,2.0235,2.0345,2.0383,2.0475,2.0526,2.0567,2.0634,2.0688,2.0762,2.0797,2.0883,2.093,2.0996,2.1028,2.0988,2.1163,2.1115,2.1184,2.1183,2.1221,2.1219,2.1401,2.125,2.1249,2.1249,2.1249,0,2.024,2.0335,2.0386,2.0454,2.0561,2.0589,2.0694,2.0733,2.0793,2.0869,2.0876,2.0947,2.0985,2.1062,2.1088,2.1198,2.1219,2.1239,2.1245,2.1239,2.1236,2.127,2.1262,2.1254,2.1253,2.1252,2.1251,0,2.0358,2.0396,2.0516,2.0593,2.0614,2.0689,2.0755,2.0822,2.0855,2.0952,2.0976,2.1029,2.1121,2.1159,2.1272,2.1289,2.1415,2.1414,2.1391,2.1393,2.146,2.1453,2.1671,2.1701,2.1529,2.1531,2.1532,0,2.0448,2.0521,2.0605,2.0656,2.0698,2.078,2.0834,2.0865,2.0921,2.1007,2.1064,2.1155,2.123,2.1376,2.1425,2.1512,2.1513,2.1583,2.1526,2.1518,2.1515,2.1511,2.1519,2.1594,2.1596,2.1597,2.1598,0,2.0604,2.0619,2.0696,2.078,2.0844,2.0912,2.0978,2.102,2.1061,2.1124,2.1217,2.1275,2.1389,2.148,2.1569,2.1612,2.1613,2.1616,2.1636,2.1632,2.1616,2.1626,2.142,2.1611,2.161,2.1609,2.1608,2.1607,2.0711,2.0776,2.0845,2.0931,2.0984,2.1045,2.1112,2.1153,2.1231,2.1326,2.134,2.144,2.151,2.1629,2.1675,2.1755,2.1737,2.1767,2.1775,2.1782,2.1786,2.1602,2.1771,2.1771,2.177,2.177,2.177,0,2.0868,2.0912,2.0991,2.1083,2.1151,2.1144,2.1217,2.1274,2.1362,2.1427,2.15,2.1607,2.1695,2.1751,2.184,2.1893,2.1896,2.1916,2.1913,2.1923,2.1797,2.177,2.1912,2.1912,2.1912,2.1912,2.1912,2.1912,2.0957,2.1067,2.109,2.1226,2.127,2.1367,2.141,2.1467,2.1519,2.1638,2.1711,2.1747,2.1808,2.1902,2.1983,2.1997,2.203,2.2051,2.2065,2.1946,2.1931,2.1917,2.1893,2.2058,2.2058,2.2184,2.2185,2.2186]},{"header":{"parameterUnit":"m.s-1","parameterCategory":1,"la1":30.2991,"la2":30.254,"lo1":-89.0895,"lo2":-89.0444,"dy":0.0017,"dx":0.0017,"nx":28,"ny":28,"refTime":"2023-09-13T09:00:00:Z","depth":0,"parameterNumber":3,"parameterNumberName":"V-component_of_WINDS"},"data":[0,0,0,0,0,0,0,0,0,0,0,0,0,0,0,0,0,0,0,0,0,0,0,0,0,0,0,0,0,0,0,0,0,0,0,0,0,0,0,0,0,0,0,0,0,0,0,0,0,0,0,0,0,0,0,0,0,0,1.1267,1.1266,0,1.1235,1.1234,1.1234,1.114,1.1138,1.1136,1.1134,1.1103,1.1104,1.1105,0,0,0,0,0,0,0,0,0,0,0,0,0,1.1247,1.1248,1.1267,1.1266,1.1266,1.1235,1.1234,1.1234,1.1141,1.1138,1.1136,1.1133,1.1102,1.1104,1.1105,0,0,0,0,0,0,0,0,0,0,0,0,0,1.1239,1.1248,1.1267,1.1216,1.1211,1.1235,1.1234,1.1234,1.1141,1.1138,1.1135,1.1132,1.1102,1.1103,1.1105,1.1176,0,0,1.111,1.1111,0,0,0,0,0,0,0,0,1.124,1.124,1.1224,1.1219,1.1214,1.1188,1.1216,1.1215,1.1142,1.1168,1.1134,1.1131,1.1134,1.1133,1.1133,1.1175,1.1174,1.111,1.1111,1.1112,1.1112,0,0,0,0,0,0,0,1.1241,1.1241,1.1254,1.1223,1.1218,1.1194,1.119,1.1215,1.1168,1.1165,1.1158,1.1156,1.113,1.1132,1.1132,1.1173,1.111,1.1111,1.1112,1.1113,1.127,1.1273,0,0,0,0,0,0,1.1248,1.1242,1.1255,1.1253,1.122,1.1197,1.1192,1.12,1.1168,1.116,1.1158,1.1152,1.1131,1.113,1.113,1.1211,1.1112,1.1113,1.1114,1.1267,1.1271,1.1274,0,0,0,0,0,0,1.1248,1.125,1.1256,1.1246,1.1245,1.1201,1.121,1.1201,1.1202,1.1163,1.1154,1.1169,1.1128,1.1128,1.1165,1.1209,1.1114,1.1115,1.1263,1.1268,1.1272,1.1374,0,0,0,0,0,0,1.1248,1.1251,1.1278,1.1247,1.1246,1.1292,1.1213,1.1202,1.1205,1.1196,1.117,1.1163,1.1126,1.1163,1.1167,1.1209,1.1117,1.1259,1.1265,1.1271,1.1366,1.1381,1.1394,0,0,0,0,0,1.1248,1.1308,1.128,1.1282,1.1278,1.1295,1.1294,1.125,1.1209,1.1235,1.121,1.1164,1.1203,1.1168,1.1171,1.1215,1.1256,1.1263,1.127,1.136,1.1378,1.1394,0,0,0,0,0,0,1.1347,1.1303,1.1271,1.1324,1.1314,1.1279,1.1311,1.1271,1.1273,1.1265,1.121,1.1205,1.125,1.1235,1.1197,1.1281,1.1222,1.123,1.1289,1.1306,1.132,1.1322,1.1118,0,0,0,0,0,1.1374,1.1391,1.1353,1.1403,1.1399,1.1356,1.1362,1.1329,1.1316,1.1312,1.1289,1.1279,1.1288,1.1296,1.1303,1.1363,1.1356,1.1394,1.1408,1.142,1.1428,1.1458,1.1474,1.1298,1.1298,1.1298,0,0,1.1432,1.1411,1.1425,1.1422,1.141,1.1429,1.1353,1.1377,1.139,1.1315,1.1349,1.1331,1.1316,1.1365,1.1385,1.1355,1.1475,1.1429,1.1439,1.144,1.1467,1.1484,1.1498,1.1303,1.1302,1.1301,0,0,1.1547,1.1532,1.1572,1.1561,1.1544,1.1515,1.1524,1.1495,1.1481,1.1513,1.1457,1.1472,1.149,1.1482,1.148,1.1589,1.1546,1.1593,1.1666,1.1695,1.1709,1.1721,1.176,1.1775,1.16,1.1601,1.1601,0,1.1621,1.1647,1.1597,1.1623,1.1623,1.1556,1.1595,1.1587,1.1573,1.1575,1.154,1.1561,1.1546,1.1591,1.1618,1.1618,1.1627,1.1596,1.1711,1.1723,1.1733,1.177,1.1784,1.1606,1.1606,1.1605,1.1605,0,1.1738,1.1757,1.1791,1.1778,1.1781,1.1814,1.177,1.1779,1.1745,1.172,1.1753,1.1732,1.1733,1.1741,1.1709,1.1782,1.1763,1.1721,1.166,1.1757,1.179,1.1803,1.1615,1.1613,1.1611,1.1609,0,0,1.1916,1.1874,1.1887,1.188,1.1855,1.1868,1.1898,1.1898,1.1907,1.1899,1.1922,1.1938,1.1898,1.1896,1.1862,1.1888,1.1975,1.1842,1.1841,1.1867,1.2053,1.2085,1.2102,1.1946,1.1948,1.195,1.2054,0,1.2024,1.2071,1.2027,1.2083,1.2099,1.2034,1.2059,1.2046,1.2023,1.2032,1.2006,1.2019,1.1965,1.1963,1.1986,1.196,1.2012,1.1951,1.1967,1.1968,1.1973,1.212,1.2154,1.2253,1.2067,1.2069,1.2071,0,1.2157,1.2154,1.2212,1.2182,1.2187,1.221,1.2206,1.2216,1.22,1.2181,1.2178,1.2136,1.2161,1.2102,1.2137,1.2097,1.21,1.2088,1.2091,1.2091,1.2026,1.2124,1.2284,1.2299,1.2091,1.2089,1.2088,0,1.2281,1.2291,1.2327,1.2323,1.2288,1.2306,1.2293,1.2273,1.2276,1.2272,1.2273,1.2273,1.2273,1.2274,1.2233,1.2193,1.2273,1.221,1.2258,1.2259,1.2278,1.2278,1.2441,1.228,1.228,1.2279,1.2279,0,1.2407,1.2444,1.2381,1.2403,1.2443,1.2391,1.2432,1.2412,1.2395,1.2412,1.2355,1.2372,1.2316,1.2327,1.2294,1.2328,1.2328,1.2314,1.2305,1.2319,1.2321,1.2321,1.2314,1.2283,1.2282,1.2282,1.2281,0,1.2552,1.2511,1.2545,1.2509,1.2501,1.2532,1.2501,1.252,1.2492,1.2513,1.2516,1.2472,1.2481,1.244,1.2443,1.2421,1.2471,1.245,1.2477,1.247,1.2521,1.2517,1.269,1.2711,1.2536,1.2538,1.254,0,1.2635,1.2662,1.2629,1.2635,1.2625,1.2636,1.2638,1.2587,1.2592,1.2574,1.2595,1.26,1.2601,1.2619,1.2588,1.2589,1.2569,1.2629,1.2569,1.2582,1.257,1.2569,1.2571,1.2642,1.2644,1.2646,1.2648,0,1.2787,1.2765,1.277,1.2767,1.2771,1.2766,1.2758,1.2767,1.2712,1.272,1.2728,1.2729,1.2731,1.2737,1.2731,1.2717,1.2674,1.2667,1.2678,1.2693,1.2707,1.27,1.2511,1.2663,1.2662,1.2661,1.266,1.2659,1.2904,1.2924,1.2904,1.291,1.2898,1.2892,1.2907,1.288,1.2886,1.2884,1.2853,1.2868,1.2849,1.2837,1.2828,1.2838,1.2809,1.2826,1.283,1.2835,1.2844,1.2705,1.2837,1.2836,1.2836,1.2835,1.2835,0,1.3053,1.3036,1.3042,1.3032,1.3037,1.2994,1.2982,1.299,1.3003,1.2989,1.2991,1.3,1.3005,1.2973,1.2974,1.2988,1.2968,1.299,1.2989,1.2986,1.2869,1.286,1.3006,1.3006,1.3006,1.3006,1.3006,1.3006,1.3131,1.3163,1.3139,1.3165,1.3147,1.316,1.3157,1.315,1.3139,1.3152,1.3155,1.3134,1.3113,1.3111,1.3113,1.3103,1.3106,1.3135,1.3119,1.3011,1.2994,1.2979,1.2969,1.3136,1.3136,1.3235,1.3236,1.3237]}]]